Date String (YYYY-MM-DD hh:mm:ss) UTC,Instrument flags,absolute air pressure of the measurement (hPa),sample flow rate (lpm),inlet stack bypass flow (lpm),air temperature of the measurement (°C),ambient temperature measured by the external sensor (°C),aerosol sample conditioner tube jacket temperature (°C),OPC LED temperature (°C),internal box temperature (°C),relative humidity of the measurement (%),span deviation,mass concentration of particles derived from Lorenz-Mie calculation of OPC scattering (μg/m³),mass concentration of particles derived from Lorenz-Mie calculation of OPC scattering (μg/m³),mass concentration of particles derived from Lorenz-Mie calculation of OPC scattering (μg/m³)
DateTimeUTC,F1_M11,P_M11,Q1_M11,Q2_M11,T1_M11,T2_M11,T3_M11,T4_M11,T5_M11,U1_M11,ZSPAN_M11,X2_M11,X0_M11,X1_M11
2023-06-04 22:00:00,SystemResetWarning,0834.7,5.00,000.00,030.6,029.2,000.0,039.0,032.2,29.9,0000.0,0003.34,0005.33,0003.20
2023-06-04 22:01:00,SystemResetWarning,0834.8,5.00,000.00,030.6,029.2,000.0,039.0,032.2,30.1,0000.0,0003.35,0005.54,0003.19
2023-06-04 22:02:00,SystemResetWarning,0835.0,4.99,000.00,030.6,029.2,000.0,039.0,032.2,30.3,0000.0,0003.34,0005.40,0003.18
2023-06-04 22:03:00,SystemResetWarning,0835.3,4.99,000.00,030.6,029.2,000.0,039.0,032.2,30.5,0000.0,0003.34,0005.45,0003.18
2023-06-04 22:04:00,SystemResetWarning,0835.3,5.00,000.00,030.6,029.2,000.0,039.0,032.2,30.3,0000.0,0003.35,0005.47,0003.18
2023-06-04 22:05:00,SystemResetWarning,0835.4,5.00,000.00,030.6,029.2,000.0,039.0,032.2,30.7,0000.0,0003.35,0005.39,0003.19
2023-06-04 22:06:00,SystemResetWarning,0835.4,5.01,000.00,030.6,029.2,000.0,039.0,032.2,30.8,0000.0,0003.37,0005.47,0003.20
2023-06-04 22:07:00,SystemResetWarning,0835.2,5.01,000.00,030.6,029.2,000.0,039.0,032.2,30.5,0000.0,0003.38,0005.51,0003.21
2023-06-04 22:08:00,SystemResetWarning,0835.3,5.01,000.00,030.6,029.2,000.0,039.0,032.2,30.5,0000.0,0003.39,0005.56,0003.21
2023-06-04 22:09:00,SystemResetWarning,0835.4,5.00,000.00,030.6,029.2,000.0,039.0,032.2,30.5,0000.0,0003.39,0004.47,0003.22
2023-06-04 22:10:00,SystemResetWarning,0835.4,5.00,000.00,030.6,029.2,000.0,039.0,032.2,30.5,0000.0,0003.38,0004.35,0003.22
2023-06-04 22:11:00,SystemResetWarning,0835.3,5.00,000.00,030.6,029.1,000.0,039.1,032.2,30.6,0000.0,0003.37,0004.44,0003.21
2023-06-04 22:12:00,SystemResetWarning,0835.2,5.00,000.00,030.6,029.1,000.0,039.1,032.2,30.3,0000.0,0003.33,0004.20,0003.18
2023-06-04 22:13:00,SystemResetWarning,0835.2,4.99,000.00,030.6,029.1,000.0,039.1,032.2,30.0,0000.0,0003.30,0004.14,0003.16
2023-06-04 22:14:00,SystemResetWarning,0834.8,4.99,000.00,030.6,029.1,000.0,039.0,032.2,30.4,0000.0,0003.25,0003.98,0003.13
2023-06-04 22:15:00,SystemResetWarning,0834.8,5.01,000.00,030.6,029.1,000.0,039.1,032.2,30.8,0000.0,0003.23,0003.94,0003.10
2023-06-04 22:16:00,SystemResetWarning,0834.8,5.00,000.00,030.6,029.1,000.0,039.1,032.2,30.7,0000.0,0003.25,0004.05,0003.10
2023-06-04 22:17:00,SystemResetWarning,0834.7,4.99,000.00,030.6,029.1,000.0,039.1,032.2,30.6,0000.0,0003.24,0003.99,0003.07
2023-06-04 22:18:00,SystemResetWarning,0834.8,5.00,000.00,030.6,029.1,000.0,039.1,032.2,30.7,0000.0,0003.22,0003.94,0003.04
2023-06-04 22:19:00,SystemResetWarning,0834.8,4.99,000.00,030.6,029.1,000.0,039.1,032.2,30.6,0000.0,0003.19,0003.89,0003.00
2023-06-04 22:20:00,SystemResetWarning,0834.7,5.00,000.00,030.6,029.1,000.0,039.1,032.2,30.7,0000.0,0003.18,0003.96,0002.97
2023-06-04 22:21:00,SystemResetWarning,0834.7,5.00,000.00,030.6,029.1,000.0,039.1,032.2,30.6,0000.0,0003.17,0003.96,0002.94
2023-06-04 22:22:00,SystemResetWarning,0834.8,5.00,000.00,030.6,029.1,000.0,039.0,032.1,30.6,0000.0,0003.17,0004.20,0002.92
2023-06-04 22:23:00,SystemResetWarning,0834.8,5.01,000.00,030.6,029.1,000.0,039.0,032.2,30.6,0000.0,0003.16,0004.26,0002.91
2023-06-04 22:24:00,SystemResetWarning,0834.8,5.01,000.00,030.6,029.1,000.0,039.1,032.2,30.6,0000.0,0003.14,0004.18,0002.90
2023-06-04 22:25:00,SystemResetWarning,0834.7,5.00,000.00,030.6,029.1,000.0,039.0,032.2,30.2,0000.0,0003.11,0004.15,0002.86
2023-06-04 22:26:00,SystemResetWarning,0834.7,5.00,000.00,030.6,029.1,000.0,039.0,032.2,29.7,0000.0,0003.04,0004.43,0002.79
2023-06-04 22:27:00,SystemResetWarning,0834.7,4.99,000.00,030.6,029.1,000.0,039.0,032.2,29.5,0000.0,0002.90,0004.36,0002.70
2023-06-04 22:28:00,SystemResetWarning,0834.7,4.99,000.00,030.6,029.1,000.0,039.1,032.2,29.3,0000.0,0002.79,0004.22,0002.60
2023-06-04 22:29:00,SystemResetWarning,0834.7,5.00,000.00,030.6,029.1,000.0,039.1,032.2,29.2,0000.0,0002.71,0004.14,0002.51
2023-06-04 22:30:00,SystemResetWarning,0834.7,5.01,000.00,030.6,029.1,000.0,039.0,032.2,29.1,0000.0,0002.62,0004.03,0002.41
2023-06-04 22:31:00,SystemResetWarning,0834.7,5.00,000.00,030.6,029.1,000.0,039.1,032.2,29.0,0000.0,0002.52,0003.85,0002.31
2023-06-04 22:32:00,SystemResetWarning,0834.7,5.01,000.00,030.6,029.1,000.0,039.1,032.2,29.0,0000.0,0002.44,0003.77,0002.23
2023-06-04 22:33:00,SystemResetWarning,0834.7,5.00,000.00,030.6,029.1,000.0,039.1,032.2,28.9,0000.0,0002.38,0003.40,0002.17
2023-06-04 22:34:00,SystemResetWarning,0834.7,5.00,000.00,030.6,029.1,000.0,039.1,032.2,28.9,0000.0,0002.31,0003.17,0002.09
2023-06-04 22:35:00,SystemResetWarning,0834.8,5.00,000.00,030.6,029.1,000.0,039.1,032.2,28.9,0000.0,0002.25,0003.11,0002.04
2023-06-04 22:36:00,SystemResetWarning,0835.0,5.00,000.00,030.6,029.1,000.0,039.1,032.2,29.1,0000.0,0002.23,0003.07,0002.01
2023-06-04 22:37:00,SystemResetWarning,0835.1,4.99,000.00,030.6,029.1,000.0,039.1,032.2,29.1,0000.0,0002.28,0002.82,0002.01
2023-06-04 22:38:00,SystemResetWarning,0835.2,5.00,000.00,030.6,029.1,000.0,039.1,032.2,29.3,0000.0,0002.31,0002.73,0002.01
2023-06-04 22:39:00,SystemResetWarning,0835.2,5.00,000.00,030.6,029.1,000.0,039.1,032.2,29.4,0000.0,0002.33,0002.78,0002.02
2023-06-04 22:40:00,SystemResetWarning,0835.2,5.00,000.00,030.6,029.1,000.0,039.1,032.2,29.4,0000.0,0002.35,0002.83,0002.02
2023-06-04 22:41:00,SystemResetWarning,0834.9,5.00,000.00,030.6,029.1,000.0,039.1,032.2,29.5,0000.0,0002.36,0002.83,0002.05
2023-06-04 22:42:00,SystemResetWarning,0834.9,5.00,000.00,030.7,029.1,000.0,039.1,032.2,29.4,0000.0,0002.36,0002.80,0002.08
2023-06-04 22:43:00,SystemResetWarning,0834.9,5.00,000.00,030.7,029.1,000.0,039.1,032.2,29.3,0000.0,0002.40,0002.91,0002.10
2023-06-04 22:44:00,SystemResetWarning,0834.7,5.00,000.00,030.7,028.7,000.0,039.0,032.2,29.5,0000.0,0002.39,0002.89,0002.12
2023-06-04 22:45:00,SystemResetWarning,0834.7,4.99,000.00,030.6,026.9,000.0,039.0,031.9,30.2,0000.0,0002.42,0002.89,0002.17
2023-06-04 22:46:00,SystemResetWarning,0834.7,5.00,000.00,030.5,025.6,000.0,038.8,031.7,30.3,0000.0,0002.47,0002.95,0002.21
2023-06-04 22:47:00,SystemResetWarning,0835.1,5.00,000.00,030.4,025.4,000.0,038.8,031.5,30.6,0000.0,0002.55,0003.17,0002.25
2023-06-04 22:48:00,SystemResetWarning,0835.0,5.01,000.00,030.3,025.6,000.0,038.7,031.4,31.1,0000.0,0002.60,0003.28,0002.28
2023-06-04 22:49:00,SystemResetWarning,0834.7,5.02,000.00,030.2,026.0,000.0,038.7,031.4,31.4,0000.0,0002.62,0003.30,0002.30
2023-06-04 22:50:00,SystemResetWarning,0834.6,4.99,000.00,030.1,026.4,000.0,038.7,031.4,31.6,0000.0,0002.68,0003.41,0002.35
2023-06-04 22:51:00,SystemResetWarning,0834.5,5.00,000.00,030.1,026.8,000.0,038.7,031.5,31.5,0000.0,0002.70,0003.37,0002.38
2023-06-04 22:52:00,SystemResetWarning,0834.5,5.00,000.00,030.1,027.2,000.0,038.6,031.5,31.0,0000.0,0002.74,0003.46,0002.40
2023-06-04 22:53:00,SystemResetWarning,0834.5,4.99,000.00,030.1,027.4,000.0,038.6,031.5,31.1,0000.0,0002.78,0003.84,0002.42
2023-06-04 22:54:00,SystemResetWarning,0834.5,5.00,000.00,030.1,027.7,000.0,038.6,031.5,30.6,0000.0,0002.80,0003.90,0002.45
2023-06-04 22:55:00,SystemResetWarning,0834.5,5.00,000.00,030.1,027.9,000.0,038.6,031.6,30.6,0000.0,0002.81,0003.88,0002.47
2023-06-04 22:56:00,SystemResetWarning,0834.5,5.01,000.00,030.1,028.0,000.0,038.6,031.6,30.7,0000.0,0002.81,0003.88,0002.47
2023-06-04 22:57:00,SystemResetWarning,0834.7,5.01,000.00,030.1,028.1,000.0,038.6,031.6,30.9,0000.0,0002.82,0003.92,0002.47
2023-06-04 22:58:00,SystemResetWarning,0834.6,5.00,000.00,030.1,028.2,000.0,038.5,031.6,30.9,0000.0,0002.81,0003.80,0002.47
2023-06-04 22:59:00,SystemResetWarning,0835.0,4.99,000.00,030.1,028.3,000.0,038.5,031.7,31.0,0000.0,0002.79,0003.75,0002.49
